owner,sensor,date,latitude,longitude,vertical_datum,sea_water_practical_salinity,qcFlag 
ENP,ioos.station.NOAA.NDBC:HCEF1:1,2019-10-01T00:00:00Z,25.2540,-80.4440,1.5,34.82,11111222 
ENP,ioos.station.NOAA.NDBC:HCEF1:1,2019-10-01T02:00:00Z,25.2540,-80.4440,1.5,34.96,11111222 
ENP,ioos.station.NOAA.NDBC:HCEF1:1,2019-10-01T04:00:00Z,25.2540,-80.4440,1.5,34.99,11111222 
ENP,ioos.station.NOAA.NDBC:HCEF1:1,2019-10-01T05:00:00Z,25.2540,-80.4440,1.5,34.95,11111222 
ENP,ioos.station.NOAA.NDBC:HCEF1:1,2019-10-01T06:00:00Z,25.2540,-80.4440,1.5,35.01,11111222 
ENP,ioos.station.NOAA.NDBC:HCEF1:1,2019-10-01T07:00:00Z,25.2540,-80.4440,1.5,35.03,11111222 
ENP,ioos.station.NOAA.NDBC:HCEF1:1,2019-10-01T08:00:00Z,25.2540,-80.4440,1.5,35.05,11111222 
ENP,ioos.station.NOAA.NDBC:HCEF1:1,2019-10-01T09:00:00Z,25.2540,-80.4440,1.5,35.08,11111222 
ENP,ioos.station.NOAA.NDBC:HCEF1:1,2019-10-01T10:00:00Z,25.2540,-80.4440,1.5,35.17,11111222 
ENP,ioos.station.NOAA.NDBC:HCEF1:1,2019-10-01T11:00:00Z,25.2540,-80.4440,1.5,35.2,11111222 
ENP,ioos.station.NOAA.NDBC:HCEF1:1,2019-10-01T12:00:00Z,25.2540,-80.4440,1.5,35.25,11111222 
ENP,ioos.station.NOAA.NDBC:HCEF1:1,2019-10-01T13:00:00Z,25.2540,-80.4440,1.5,35.28,11111222 
ENP,ioos.station.NOAA.NDBC:HCEF1:1,2019-10-01T14:00:00Z,25.2540,-80.4440,1.5,35.14,11111222 
ENP,ioos.station.NOAA.NDBC:HCEF1:1,2019-10-01T16:00:00Z,25.2540,-80.4440,1.5,35.12,11111222 
ENP,ioos.station.NOAA.NDBC:HCEF1:1,2019-10-01T17:00:00Z,25.2540,-80.4440,1.5,35.09,11111222 
ENP,ioos.station.NOAA.NDBC:HCEF1:1,2019-10-01T18:00:00Z,25.2540,-80.4440,1.5,35.17,11111222 
ENP,ioos.station.NOAA.NDBC:HCEF1:1,2019-10-01T19:00:00Z,25.2540,-80.4440,1.5,35.2,11111222 
ENP,ioos.station.NOAA.NDBC:HCEF1:1,2019-10-01T20:00:00Z,25.2540,-80.4440,1.5,35.23,11111222 
ENP,ioos.station.NOAA.NDBC:HCEF1:1,2019-10-01T21:00:00Z,25.2540,-80.4440,1.5,35.35,11111222 
ENP,ioos.station.NOAA.NDBC:HCEF1:1,2019-10-01T22:00:00Z,25.2540,-80.4440,1.5,35.45,11111222 
ENP,ioos.station.NOAA.NDBC:HCEF1:1,2019-10-01T23:00:00Z,25.2540,-80.4440,1.5,35.4,11111222 
ENP,ioos.station.NOAA.NDBC:HCEF1:1,2019-10-02T00:00:00Z,25.2540,-80.4440,1.5,35.4,11111222 
ENP,ioos.station.NOAA.NDBC:HCEF1:1,2019-10-02T02:00:00Z,25.2540,-80.4440,1.5,35.34,11111222 
ENP,ioos.station.NOAA.NDBC:HCEF1:1,2019-10-02T04:00:00Z,25.2540,-80.4440,1.5,35.33,11111222 
ENP,ioos.station.NOAA.NDBC:HCEF1:1,2019-10-02T05:00:00Z,25.2540,-80.4440,1.5,35.35,11111222 
ENP,ioos.station.NOAA.NDBC:HCEF1:1,2019-10-02T06:00:00Z,25.2540,-80.4440,1.5,35.42,11111222 
ENP,ioos.station.NOAA.NDBC:HCEF1:1,2019-10-02T07:00:00Z,25.2540,-80.4440,1.5,35.45,11111222 
ENP,ioos.station.NOAA.NDBC:HCEF1:1,2019-10-02T08:00:00Z,25.2540,-80.4440,1.5,35.51,11111222 
ENP,ioos.station.NOAA.NDBC:HCEF1:1,2019-10-02T09:00:00Z,25.2540,-80.4440,1.5,35.55,11111222 
ENP,ioos.station.NOAA.NDBC:HCEF1:1,2019-10-02T10:00:00Z,25.2540,-80.4440,1.5,35.58,11111222 
ENP,ioos.station.NOAA.NDBC:HCEF1:1,2019-10-02T11:00:00Z,25.2540,-80.4440,1.5,35.6,11111222 
ENP,ioos.station.NOAA.NDBC:HCEF1:1,2019-10-02T12:00:00Z,25.2540,-80.4440,1.5,35.64,11111222 
ENP,ioos.station.NOAA.NDBC:HCEF1:1,2019-10-02T13:00:00Z,25.2540,-80.4440,1.5,35.7,11111222 
ENP,ioos.station.NOAA.NDBC:HCEF1:1,2019-10-02T14:00:00Z,25.2540,-80.4440,1.5,35.71,11111222 
ENP,ioos.station.NOAA.NDBC:HCEF1:1,2019-10-02T15:00:00Z,25.2540,-80.4440,1.5,35.7,11111222 
ENP,ioos.station.NOAA.NDBC:HCEF1:1,2019-10-02T17:00:00Z,25.2540,-80.4440,1.5,35.56,11111222 
ENP,ioos.station.NOAA.NDBC:HCEF1:1,2019-10-02T18:00:00Z,25.2540,-80.4440,1.5,35.66,11111222 
ENP,ioos.station.NOAA.NDBC:HCEF1:1,2019-10-02T19:00:00Z,25.2540,-80.4440,1.5,35.7,11111222 
ENP,ioos.station.NOAA.NDBC:HCEF1:1,2019-10-02T20:00:00Z,25.2540,-80.4440,1.5,35.73,11111222 
ENP,ioos.station.NOAA.NDBC:HCEF1:1,2019-10-02T21:00:00Z,25.2540,-80.4440,1.5,35.73,11111222 
ENP,ioos.station.NOAA.NDBC:HCEF1:1,2019-10-02T22:00:00Z,25.2540,-80.4440,1.5,35.77,11111222 
ENP,ioos.station.NOAA.NDBC:HCEF1:1,2019-10-02T23:00:00Z,25.2540,-80.4440,1.5,35.79,11111222 
ENP,ioos.station.NOAA.NDBC:HCEF1:1,2019-10-03T04:00:00Z,25.2540,-80.4440,1.5,35.84,11111222 
ENP,ioos.station.NOAA.NDBC:HCEF1:1,2019-10-03T05:00:00Z,25.2540,-80.4440,1.5,35.82,11111222 
ENP,ioos.station.NOAA.NDBC:HCEF1:1,2019-10-03T17:00:00Z,25.2540,-80.4440,1.5,35.57,11111222 
ENP,ioos.station.NOAA.NDBC:HCEF1:1,2019-10-03T18:00:00Z,25.2540,-80.4440,1.5,35.57,11111222 
ENP,ioos.station.NOAA.NDBC:HCEF1:1,2019-10-03T19:00:00Z,25.2540,-80.4440,1.5,35.46,11111222 
ENP,ioos.station.NOAA.NDBC:HCEF1:1,2019-10-03T20:00:00Z,25.2540,-80.4440,1.5,35.42,11111222 
ENP,ioos.station.NOAA.NDBC:HCEF1:1,2019-10-03T21:00:00Z,25.2540,-80.4440,1.5,35.4,11111222 
ENP,ioos.station.NOAA.NDBC:HCEF1:1,2019-10-03T22:00:00Z,25.2540,-80.4440,1.5,35.41,11111222 
ENP,ioos.station.NOAA.NDBC:HCEF1:1,2019-10-03T23:00:00Z,25.2540,-80.4440,1.5,35.44,11111222 
ENP,ioos.station.NOAA.NDBC:HCEF1:1,2019-10-04T00:00:00Z,25.2540,-80.4440,1.5,35.55,11111222 
ENP,ioos.station.NOAA.NDBC:HCEF1:1,2019-10-04T02:00:00Z,25.2540,-80.4440,1.5,35.69,11111222 
ENP,ioos.station.NOAA.NDBC:HCEF1:1,2019-10-04T04:00:00Z,25.2540,-80.4440,1.5,35.54,11111222 
ENP,ioos.station.NOAA.NDBC:HCEF1:1,2019-10-04T05:00:00Z,25.2540,-80.4440,1.5,35.62,11111222 
ENP,ioos.station.NOAA.NDBC:HCEF1:1,2019-10-04T06:00:00Z,25.2540,-80.4440,1.5,35.46,11111222 
ENP,ioos.station.NOAA.NDBC:HCEF1:1,2019-10-04T07:00:00Z,25.2540,-80.4440,1.5,35.34,11111222 
ENP,ioos.station.NOAA.NDBC:HCEF1:1,2019-10-04T08:00:00Z,25.2540,-80.4440,1.5,35.31,11111222 
ENP,ioos.station.NOAA.NDBC:HCEF1:1,2019-10-04T09:00:00Z,25.2540,-80.4440,1.5,35.4,11111222 
ENP,ioos.station.NOAA.NDBC:HCEF1:1,2019-10-04T10:00:00Z,25.2540,-80.4440,1.5,35.51,11111222 
ENP,ioos.station.NOAA.NDBC:HCEF1:1,2019-10-04T11:00:00Z,25.2540,-80.4440,1.5,35.54,11111222 
ENP,ioos.station.NOAA.NDBC:HCEF1:1,2019-10-04T12:00:00Z,25.2540,-80.4440,1.5,35.59,11111222 
ENP,ioos.station.NOAA.NDBC:HCEF1:1,2019-10-04T13:00:00Z,25.2540,-80.4440,1.5,35.7,11111222 
ENP,ioos.station.NOAA.NDBC:HCEF1:1,2019-10-04T14:00:00Z,25.2540,-80.4440,1.5,35.78,11111222 
ENP,ioos.station.NOAA.NDBC:HCEF1:1,2019-10-04T15:00:00Z,25.2540,-80.4440,1.5,35.82,11111222 
ENP,ioos.station.NOAA.NDBC:HCEF1:1,2019-10-04T16:00:00Z,25.2540,-80.4440,1.5,35.85,11111222 
ENP,ioos.station.NOAA.NDBC:HCEF1:1,2019-10-04T17:00:00Z,25.2540,-80.4440,1.5,35.56,11111222 
ENP,ioos.station.NOAA.NDBC:HCEF1:1,2019-10-04T18:00:00Z,25.2540,-80.4440,1.5,35.54,11111222 
ENP,ioos.station.NOAA.NDBC:HCEF1:1,2019-10-04T19:00:00Z,25.2540,-80.4440,1.5,35.57,11111222 
ENP,ioos.station.NOAA.NDBC:HCEF1:1,2019-10-04T20:00:00Z,25.2540,-80.4440,1.5,35.58,11111222 
ENP,ioos.station.NOAA.NDBC:HCEF1:1,2019-10-04T22:00:00Z,25.2540,-80.4440,1.5,35.52,11111222 
ENP,ioos.station.NOAA.NDBC:HCEF1:1,2019-10-04T23:00:00Z,25.2540,-80.4440,1.5,35.59,11111222 
ENP,ioos.station.NOAA.NDBC:HCEF1:1,2019-10-05T00:00:00Z,25.2540,-80.4440,1.5,35.61,11111222 
ENP,ioos.station.NOAA.NDBC:HCEF1:1,2019-10-05T02:00:00Z,25.2540,-80.4440,1.5,35.7,11111222 
ENP,ioos.station.NOAA.NDBC:HCEF1:1,2019-10-05T04:00:00Z,25.2540,-80.4440,1.5,35.81,11111222 
ENP,ioos.station.NOAA.NDBC:HCEF1:1,2019-10-05T05:00:00Z,25.2540,-80.4440,1.5,35.82,11111222 
ENP,ioos.station.NOAA.NDBC:HCEF1:1,2019-10-05T06:00:00Z,25.2540,-80.4440,1.5,35.81,11111222 
ENP,ioos.station.NOAA.NDBC:HCEF1:1,2019-10-05T07:00:00Z,25.2540,-80.4440,1.5,35.81,11111222 
ENP,ioos.station.NOAA.NDBC:HCEF1:1,2019-10-05T08:00:00Z,25.2540,-80.4440,1.5,35.8,11111222 
ENP,ioos.station.NOAA.NDBC:HCEF1:1,2019-10-05T09:00:00Z,25.2540,-80.4440,1.5,35.79,11111222 
ENP,ioos.station.NOAA.NDBC:HCEF1:1,2019-10-05T10:00:00Z,25.2540,-80.4440,1.5,35.78,11111222 
ENP,ioos.station.NOAA.NDBC:HCEF1:1,2019-10-05T11:00:00Z,25.2540,-80.4440,1.5,35.74,11111222 
ENP,ioos.station.NOAA.NDBC:HCEF1:1,2019-10-05T12:00:00Z,25.2540,-80.4440,1.5,35.75,11111222 
ENP,ioos.station.NOAA.NDBC:HCEF1:1,2019-10-05T13:00:00Z,25.2540,-80.4440,1.5,35.76,11111222 
ENP,ioos.station.NOAA.NDBC:HCEF1:1,2019-10-05T14:00:00Z,25.2540,-80.4440,1.5,35.76,11111222 
ENP,ioos.station.NOAA.NDBC:HCEF1:1,2019-10-05T15:00:00Z,25.2540,-80.4440,1.5,35.77,11111222 
ENP,ioos.station.NOAA.NDBC:HCEF1:1,2019-10-05T16:00:00Z,25.2540,-80.4440,1.5,35.74,11111222 
ENP,ioos.station.NOAA.NDBC:HCEF1:1,2019-10-05T17:00:00Z,25.2540,-80.4440,1.5,35.65,11111222 
ENP,ioos.station.NOAA.NDBC:HCEF1:1,2019-10-05T18:00:00Z,25.2540,-80.4440,1.5,35.66,11111222 
ENP,ioos.station.NOAA.NDBC:HCEF1:1,2019-10-05T19:00:00Z,25.2540,-80.4440,1.5,35.37,11111222 
ENP,ioos.station.NOAA.NDBC:HCEF1:1,2019-10-05T20:00:00Z,25.2540,-80.4440,1.5,35.3,11111222 
ENP,ioos.station.NOAA.NDBC:HCEF1:1,2019-10-05T21:00:00Z,25.2540,-80.4440,1.5,34.49,11111222 
ENP,ioos.station.NOAA.NDBC:HCEF1:1,2019-10-05T22:00:00Z,25.2540,-80.4440,1.5,34.35,11111222 
ENP,ioos.station.NOAA.NDBC:HCEF1:1,2019-10-05T23:00:00Z,25.2540,-80.4440,1.5,34.48,11111222 
ENP,ioos.station.NOAA.NDBC:HCEF1:1,2019-10-06T00:00:00Z,25.2540,-80.4440,1.5,34.71,11111222 
ENP,ioos.station.NOAA.NDBC:HCEF1:1,2019-10-06T01:00:00Z,25.2540,-80.4440,1.5,34.97,11111222 
ENP,ioos.station.NOAA.NDBC:HCEF1:1,2019-10-06T02:00:00Z,25.2540,-80.4440,1.5,35.35,11111222 
ENP,ioos.station.NOAA.NDBC:HCEF1:1,2019-10-06T04:00:00Z,25.2540,-80.4440,1.5,35.72,11111222 
ENP,ioos.station.NOAA.NDBC:HCEF1:1,2019-10-06T05:00:00Z,25.2540,-80.4440,1.5,35.77,11111222 
ENP,ioos.station.NOAA.NDBC:HCEF1:1,2019-10-06T06:00:00Z,25.2540,-80.4440,1.5,35.72,11111222 
ENP,ioos.station.NOAA.NDBC:HCEF1:1,2019-10-06T07:00:00Z,25.2540,-80.4440,1.5,35.75,11111222 
ENP,ioos.station.NOAA.NDBC:HCEF1:1,2019-10-06T08:00:00Z,25.2540,-80.4440,1.5,35.83,11111222 
ENP,ioos.station.NOAA.NDBC:HCEF1:1,2019-10-06T09:00:00Z,25.2540,-80.4440,1.5,35.85,11111222 
ENP,ioos.station.NOAA.NDBC:HCEF1:1,2019-10-06T10:00:00Z,25.2540,-80.4440,1.5,35.84,11111222 
ENP,ioos.station.NOAA.NDBC:HCEF1:1,2019-10-06T11:00:00Z,25.2540,-80.4440,1.5,35.82,11111222 
ENP,ioos.station.NOAA.NDBC:HCEF1:1,2019-10-06T12:00:00Z,25.2540,-80.4440,1.5,35.82,11111222 
ENP,ioos.station.NOAA.NDBC:HCEF1:1,2019-10-06T13:00:00Z,25.2540,-80.4440,1.5,35.82,11111222 
ENP,ioos.station.NOAA.NDBC:HCEF1:1,2019-10-06T14:00:00Z,25.2540,-80.4440,1.5,35.85,11111222 
ENP,ioos.station.NOAA.NDBC:HCEF1:1,2019-10-06T15:00:00Z,25.2540,-80.4440,1.5,35.87,11111222 
ENP,ioos.station.NOAA.NDBC:HCEF1:1,2019-10-06T16:00:00Z,25.2540,-80.4440,1.5,35.9,11111222 
ENP,ioos.station.NOAA.NDBC:HCEF1:1,2019-10-06T17:00:00Z,25.2540,-80.4440,1.5,35.92,11111222 
ENP,ioos.station.NOAA.NDBC:HCEF1:1,2019-10-06T18:00:00Z,25.2540,-80.4440,1.5,35.94,11111222 
ENP,ioos.station.NOAA.NDBC:HCEF1:1,2019-10-06T19:00:00Z,25.2540,-80.4440,1.5,35.6,11111222 
ENP,ioos.station.NOAA.NDBC:HCEF1:1,2019-10-06T20:00:00Z,25.2540,-80.4440,1.5,35.57,11111222 
ENP,ioos.station.NOAA.NDBC:HCEF1:1,2019-10-06T21:00:00Z,25.2540,-80.4440,1.5,35.37,11111222 
ENP,ioos.station.NOAA.NDBC:HCEF1:1,2019-10-06T22:00:00Z,25.2540,-80.4440,1.5,35.41,11111222 
ENP,ioos.station.NOAA.NDBC:HCEF1:1,2019-10-06T23:00:00Z,25.2540,-80.4440,1.5,35.42,11111222 
ENP,ioos.station.NOAA.NDBC:HCEF1:1,2019-10-07T00:00:00Z,25.2540,-80.4440,1.5,35.5,11111222 
ENP,ioos.station.NOAA.NDBC:HCEF1:1,2019-10-07T01:00:00Z,25.2540,-80.4440,1.5,35.66,11111222 
ENP,ioos.station.NOAA.NDBC:HCEF1:1,2019-10-07T02:00:00Z,25.2540,-80.4440,1.5,35.8,11111222 
ENP,ioos.station.NOAA.NDBC:HCEF1:1,2019-10-07T04:00:00Z,25.2540,-80.4440,1.5,35.9,11111222 
ENP,ioos.station.NOAA.NDBC:HCEF1:1,2019-10-07T06:00:00Z,25.2540,-80.4440,1.5,35.96,11111222 
ENP,ioos.station.NOAA.NDBC:HCEF1:1,2019-10-07T07:00:00Z,25.2540,-80.4440,1.5,35.95,11111222 
ENP,ioos.station.NOAA.NDBC:HCEF1:1,2019-10-07T08:00:00Z,25.2540,-80.4440,1.5,35.96,11111222 
ENP,ioos.station.NOAA.NDBC:HCEF1:1,2019-10-07T09:00:00Z,25.2540,-80.4440,1.5,35.95,11111222 
ENP,ioos.station.NOAA.NDBC:HCEF1:1,2019-10-07T10:00:00Z,25.2540,-80.4440,1.5,35.96,11111222 
ENP,ioos.station.NOAA.NDBC:HCEF1:1,2019-10-07T11:00:00Z,25.2540,-80.4440,1.5,35.97,11111222 
ENP,ioos.station.NOAA.NDBC:HCEF1:1,2019-10-07T12:00:00Z,25.2540,-80.4440,1.5,35.97,11111222 
ENP,ioos.station.NOAA.NDBC:HCEF1:1,2019-10-07T14:00:00Z,25.2540,-80.4440,1.5,35.96,11111222 
ENP,ioos.station.NOAA.NDBC:HCEF1:1,2019-10-07T15:00:00Z,25.2540,-80.4440,1.5,35.95,11111222 
ENP,ioos.station.NOAA.NDBC:HCEF1:1,2019-10-07T16:00:00Z,25.2540,-80.4440,1.5,35.85,11111222 
ENP,ioos.station.NOAA.NDBC:HCEF1:1,2019-10-07T17:00:00Z,25.2540,-80.4440,1.5,35.93,11111222 
ENP,ioos.station.NOAA.NDBC:HCEF1:1,2019-10-07T18:00:00Z,25.2540,-80.4440,1.5,35.79,11111222 
ENP,ioos.station.NOAA.NDBC:HCEF1:1,2019-10-07T19:00:00Z,25.2540,-80.4440,1.5,35.76,11111222 
ENP,ioos.station.NOAA.NDBC:HCEF1:1,2019-10-07T20:00:00Z,25.2540,-80.4440,1.5,35.71,11111222 
ENP,ioos.station.NOAA.NDBC:HCEF1:1,2019-10-07T21:00:00Z,25.2540,-80.4440,1.5,35.54,11111222 
ENP,ioos.station.NOAA.NDBC:HCEF1:1,2019-10-08T00:00:00Z,25.2540,-80.4440,1.5,34.94,11111222 
ENP,ioos.station.NOAA.NDBC:HCEF1:1,2019-10-08T01:00:00Z,25.2540,-80.4440,1.5,34.8,11111222 
ENP,ioos.station.NOAA.NDBC:HCEF1:1,2019-10-08T04:00:00Z,25.2540,-80.4440,1.5,34.35,11111222 
ENP,ioos.station.NOAA.NDBC:HCEF1:1,2019-10-08T06:00:00Z,25.2540,-80.4440,1.5,34.33,11111222 
ENP,ioos.station.NOAA.NDBC:HCEF1:1,2019-10-08T07:00:00Z,25.2540,-80.4440,1.5,34.33,11111222 
ENP,ioos.station.NOAA.NDBC:HCEF1:1,2019-10-08T08:00:00Z,25.2540,-80.4440,1.5,34.24,11111222 
ENP,ioos.station.NOAA.NDBC:HCEF1:1,2019-10-08T09:00:00Z,25.2540,-80.4440,1.5,34.2,11111222 
ENP,ioos.station.NOAA.NDBC:HCEF1:1,2019-10-08T10:00:00Z,25.2540,-80.4440,1.5,34.18,11111222 
ENP,ioos.station.NOAA.NDBC:HCEF1:1,2019-10-08T11:00:00Z,25.2540,-80.4440,1.5,34.18,11111222 
ENP,ioos.station.NOAA.NDBC:HCEF1:1,2019-10-08T12:00:00Z,25.2540,-80.4440,1.5,34.13,11111222 
ENP,ioos.station.NOAA.NDBC:HCEF1:1,2019-10-08T14:00:00Z,25.2540,-80.4440,1.5,33.99,11111222 
ENP,ioos.station.NOAA.NDBC:HCEF1:1,2019-10-08T15:00:00Z,25.2540,-80.4440,1.5,33.86,11111222 
ENP,ioos.station.NOAA.NDBC:HCEF1:1,2019-10-08T16:00:00Z,25.2540,-80.4440,1.5,33.75,11111222 
ENP,ioos.station.NOAA.NDBC:HCEF1:1,2019-10-08T17:00:00Z,25.2540,-80.4440,1.5,33.75,11111222 
ENP,ioos.station.NOAA.NDBC:HCEF1:1,2019-10-08T18:00:00Z,25.2540,-80.4440,1.5,33.8,11111222 
ENP,ioos.station.NOAA.NDBC:HCEF1:1,2019-10-08T19:00:00Z,25.2540,-80.4440,1.5,33.82,11111222 
ENP,ioos.station.NOAA.NDBC:HCEF1:1,2019-10-08T20:00:00Z,25.2540,-80.4440,1.5,33.88,11111222 
ENP,ioos.station.NOAA.NDBC:HCEF1:1,2019-10-08T21:00:00Z,25.2540,-80.4440,1.5,33.91,11111222 
ENP,ioos.station.NOAA.NDBC:HCEF1:1,2019-10-08T22:00:00Z,25.2540,-80.4440,1.5,33.95,11111222 
ENP,ioos.station.NOAA.NDBC:HCEF1:1,2019-10-08T23:00:00Z,25.2540,-80.4440,1.5,33.97,11111222 
ENP,ioos.station.NOAA.NDBC:HCEF1:1,2019-10-09T00:00:00Z,25.2540,-80.4440,1.5,33.96,11111222 
ENP,ioos.station.NOAA.NDBC:HCEF1:1,2019-10-09T02:00:00Z,25.2540,-80.4440,1.5,34.0,11111222 
ENP,ioos.station.NOAA.NDBC:HCEF1:1,2019-10-09T04:00:00Z,25.2540,-80.4440,1.5,34.02,11111222 
ENP,ioos.station.NOAA.NDBC:HCEF1:1,2019-10-09T05:00:00Z,25.2540,-80.4440,1.5,34.02,11111222 
ENP,ioos.station.NOAA.NDBC:HCEF1:1,2019-10-09T06:00:00Z,25.2540,-80.4440,1.5,34.04,11111222 
ENP,ioos.station.NOAA.NDBC:HCEF1:1,2019-10-09T07:00:00Z,25.2540,-80.4440,1.5,34.05,11111222 
ENP,ioos.station.NOAA.NDBC:HCEF1:1,2019-10-09T08:00:00Z,25.2540,-80.4440,1.5,34.07,11111222 
ENP,ioos.station.NOAA.NDBC:HCEF1:1,2019-10-09T09:00:00Z,25.2540,-80.4440,1.5,34.1,11111222 
ENP,ioos.station.NOAA.NDBC:HCEF1:1,2019-10-09T10:00:00Z,25.2540,-80.4440,1.5,34.11,11111222 
ENP,ioos.station.NOAA.NDBC:HCEF1:1,2019-10-09T11:00:00Z,25.2540,-80.4440,1.5,34.12,11111222 
ENP,ioos.station.NOAA.NDBC:HCEF1:1,2019-10-09T13:00:00Z,25.2540,-80.4440,1.5,34.13,11111222 
ENP,ioos.station.NOAA.NDBC:HCEF1:1,2019-10-09T14:00:00Z,25.2540,-80.4440,1.5,34.13,11111222 
ENP,ioos.station.NOAA.NDBC:HCEF1:1,2019-10-09T15:00:00Z,25.2540,-80.4440,1.5,34.13,11111222 
ENP,ioos.station.NOAA.NDBC:HCEF1:1,2019-10-09T16:00:00Z,25.2540,-80.4440,1.5,34.14,11111222 
ENP,ioos.station.NOAA.NDBC:HCEF1:1,2019-10-09T17:00:00Z,25.2540,-80.4440,1.5,34.16,11111222 
ENP,ioos.station.NOAA.NDBC:HCEF1:1,2019-10-09T18:00:00Z,25.2540,-80.4440,1.5,34.12,11111222 
ENP,ioos.station.NOAA.NDBC:HCEF1:1,2019-10-09T19:00:00Z,25.2540,-80.4440,1.5,34.06,11111222 
ENP,ioos.station.NOAA.NDBC:HCEF1:1,2019-10-09T20:00:00Z,25.2540,-80.4440,1.5,34.05,11111222 
ENP,ioos.station.NOAA.NDBC:HCEF1:1,2019-10-09T21:00:00Z,25.2540,-80.4440,1.5,34.05,11111222 
ENP,ioos.station.NOAA.NDBC:HCEF1:1,2019-10-10T00:00:00Z,25.2540,-80.4440,1.5,32.93,11111222 
ENP,ioos.station.NOAA.NDBC:HCEF1:1,2019-10-10T02:00:00Z,25.2540,-80.4440,1.5,33.33,11111222 
ENP,ioos.station.NOAA.NDBC:HCEF1:1,2019-10-10T04:00:00Z,25.2540,-80.4440,1.5,33.58,11111222 
ENP,ioos.station.NOAA.NDBC:HCEF1:1,2019-10-10T05:00:00Z,25.2540,-80.4440,1.5,33.67,11111222 
ENP,ioos.station.NOAA.NDBC:HCEF1:1,2019-10-10T06:00:00Z,25.2540,-80.4440,1.5,33.75,11111222 
ENP,ioos.station.NOAA.NDBC:HCEF1:1,2019-10-10T07:00:00Z,25.2540,-80.4440,1.5,33.8,11111222 
ENP,ioos.station.NOAA.NDBC:HCEF1:1,2019-10-10T08:00:00Z,25.2540,-80.4440,1.5,33.83,11111222 
ENP,ioos.station.NOAA.NDBC:HCEF1:1,2019-10-10T09:00:00Z,25.2540,-80.4440,1.5,33.83,11111222 
ENP,ioos.station.NOAA.NDBC:HCEF1:1,2019-10-10T10:00:00Z,25.2540,-80.4440,1.5,33.75,11111222 
ENP,ioos.station.NOAA.NDBC:HCEF1:1,2019-10-10T11:00:00Z,25.2540,-80.4440,1.5,33.73,11111222 
ENP,ioos.station.NOAA.NDBC:HCEF1:1,2019-10-10T12:00:00Z,25.2540,-80.4440,1.5,33.75,11111222 
ENP,ioos.station.NOAA.NDBC:HCEF1:1,2019-10-10T13:00:00Z,25.2540,-80.4440,1.5,33.76,11111222 
ENP,ioos.station.NOAA.NDBC:HCEF1:1,2019-10-10T15:00:00Z,25.2540,-80.4440,1.5,33.73,11111222 
ENP,ioos.station.NOAA.NDBC:HCEF1:1,2019-10-10T16:00:00Z,25.2540,-80.4440,1.5,33.74,11111222 
ENP,ioos.station.NOAA.NDBC:HCEF1:1,2019-10-10T17:00:00Z,25.2540,-80.4440,1.5,33.58,11111222 
ENP,ioos.station.NOAA.NDBC:HCEF1:1,2019-10-10T18:00:00Z,25.2540,-80.4440,1.5,33.6,11111222 
ENP,ioos.station.NOAA.NDBC:HCEF1:1,2019-10-10T19:00:00Z,25.2540,-80.4440,1.5,32.9,11111222 
ENP,ioos.station.NOAA.NDBC:HCEF1:1,2019-10-10T20:00:00Z,25.2540,-80.4440,1.5,33.16,11111222 
ENP,ioos.station.NOAA.NDBC:HCEF1:1,2019-10-10T21:00:00Z,25.2540,-80.4440,1.5,33.37,11111222 
ENP,ioos.station.NOAA.NDBC:HCEF1:1,2019-10-10T22:00:00Z,25.2540,-80.4440,1.5,32.82,11111222 
ENP,ioos.station.NOAA.NDBC:HCEF1:1,2019-10-10T23:00:00Z,25.2540,-80.4440,1.5,33.11,11111222 
ENP,ioos.station.NOAA.NDBC:HCEF1:1,2019-10-11T00:00:00Z,25.2540,-80.4440,1.5,33.39,11111222 
ENP,ioos.station.NOAA.NDBC:HCEF1:1,2019-10-11T01:00:00Z,25.2540,-80.4440,1.5,33.22,11111222 
ENP,ioos.station.NOAA.NDBC:HCEF1:1,2019-10-11T02:00:00Z,25.2540,-80.4440,1.5,33.38,11111222 
ENP,ioos.station.NOAA.NDBC:HCEF1:1,2019-10-11T04:00:00Z,25.2540,-80.4440,1.5,33.22,11111222 
ENP,ioos.station.NOAA.NDBC:HCEF1:1,2019-10-11T05:00:00Z,25.2540,-80.4440,1.5,33.09,11111222 
ENP,ioos.station.NOAA.NDBC:HCEF1:1,2019-10-11T06:00:00Z,25.2540,-80.4440,1.5,33.01,11111222 
ENP,ioos.station.NOAA.NDBC:HCEF1:1,2019-10-11T07:00:00Z,25.2540,-80.4440,1.5,33.1,11111222 
ENP,ioos.station.NOAA.NDBC:HCEF1:1,2019-10-11T08:00:00Z,25.2540,-80.4440,1.5,33.16,11111222 
ENP,ioos.station.NOAA.NDBC:HCEF1:1,2019-10-11T09:00:00Z,25.2540,-80.4440,1.5,33.2,11111222 
ENP,ioos.station.NOAA.NDBC:HCEF1:1,2019-10-11T10:00:00Z,25.2540,-80.4440,1.5,33.12,11111222 
ENP,ioos.station.NOAA.NDBC:HCEF1:1,2019-10-11T11:00:00Z,25.2540,-80.4440,1.5,32.99,11111222 
ENP,ioos.station.NOAA.NDBC:HCEF1:1,2019-10-11T12:00:00Z,25.2540,-80.4440,1.5,31.89,11111222 
ENP,ioos.station.NOAA.NDBC:HCEF1:1,2019-10-11T13:00:00Z,25.2540,-80.4440,1.5,30.08,11111222 
ENP,ioos.station.NOAA.NDBC:HCEF1:1,2019-10-11T14:00:00Z,25.2540,-80.4440,1.5,31.93,11111222 
ENP,ioos.station.NOAA.NDBC:HCEF1:1,2019-10-11T15:00:00Z,25.2540,-80.4440,1.5,30.32,11111222 
ENP,ioos.station.NOAA.NDBC:HCEF1:1,2019-10-11T16:00:00Z,25.2540,-80.4440,1.5,29.95,11111222 
ENP,ioos.station.NOAA.NDBC:HCEF1:1,2019-10-11T17:00:00Z,25.2540,-80.4440,1.5,31.59,11111222 
ENP,ioos.station.NOAA.NDBC:HCEF1:1,2019-10-11T18:00:00Z,25.2540,-80.4440,1.5,29.49,11111222 
ENP,ioos.station.NOAA.NDBC:HCEF1:1,2019-10-11T19:00:00Z,25.2540,-80.4440,1.5,30.35,11111222 
ENP,ioos.station.NOAA.NDBC:HCEF1:1,2019-10-11T20:00:00Z,25.2540,-80.4440,1.5,30.34,11111222 
ENP,ioos.station.NOAA.NDBC:HCEF1:1,2019-10-11T21:00:00Z,25.2540,-80.4440,1.5,30.59,11111222 
ENP,ioos.station.NOAA.NDBC:HCEF1:1,2019-10-11T22:00:00Z,25.2540,-80.4440,1.5,30.83,11111222 
ENP,ioos.station.NOAA.NDBC:HCEF1:1,2019-10-11T23:00:00Z,25.2540,-80.4440,1.5,30.45,11111222 
ENP,ioos.station.NOAA.NDBC:HCEF1:1,2019-10-12T00:00:00Z,25.2540,-80.4440,1.5,31.2,11111222 
ENP,ioos.station.NOAA.NDBC:HCEF1:1,2019-10-12T01:00:00Z,25.2540,-80.4440,1.5,30.93,11111222 
ENP,ioos.station.NOAA.NDBC:HCEF1:1,2019-10-12T02:00:00Z,25.2540,-80.4440,1.5,30.86,11111222 
ENP,ioos.station.NOAA.NDBC:HCEF1:1,2019-10-12T04:00:00Z,25.2540,-80.4440,1.5,28.71,11111222 
ENP,ioos.station.NOAA.NDBC:HCEF1:1,2019-10-12T05:00:00Z,25.2540,-80.4440,1.5,27.74,11111222 
ENP,ioos.station.NOAA.NDBC:HCEF1:1,2019-10-12T06:00:00Z,25.2540,-80.4440,1.5,28.04,11111222 
ENP,ioos.station.NOAA.NDBC:HCEF1:1,2019-10-12T07:00:00Z,25.2540,-80.4440,1.5,28.1,11111222 
ENP,ioos.station.NOAA.NDBC:HCEF1:1,2019-10-12T08:00:00Z,25.2540,-80.4440,1.5,28.6,11111222 
ENP,ioos.station.NOAA.NDBC:HCEF1:1,2019-10-12T09:00:00Z,25.2540,-80.4440,1.5,29.19,11111222 
ENP,ioos.station.NOAA.NDBC:HCEF1:1,2019-10-12T10:00:00Z,25.2540,-80.4440,1.5,29.26,11111222 
ENP,ioos.station.NOAA.NDBC:HCEF1:1,2019-10-12T11:00:00Z,25.2540,-80.4440,1.5,29.4,11111222 
ENP,ioos.station.NOAA.NDBC:HCEF1:1,2019-10-12T12:00:00Z,25.2540,-80.4440,1.5,29.56,11111222 
ENP,ioos.station.NOAA.NDBC:HCEF1:1,2019-10-12T13:00:00Z,25.2540,-80.4440,1.5,29.77,11111222 
ENP,ioos.station.NOAA.NDBC:HCEF1:1,2019-10-12T14:00:00Z,25.2540,-80.4440,1.5,30.2,11111222 
ENP,ioos.station.NOAA.NDBC:HCEF1:1,2019-10-12T15:00:00Z,25.2540,-80.4440,1.5,30.14,11111222 
ENP,ioos.station.NOAA.NDBC:HCEF1:1,2019-10-12T16:00:00Z,25.2540,-80.4440,1.5,30.33,11111222 
ENP,ioos.station.NOAA.NDBC:HCEF1:1,2019-10-12T17:00:00Z,25.2540,-80.4440,1.5,30.66,11111222 
ENP,ioos.station.NOAA.NDBC:HCEF1:1,2019-10-12T18:00:00Z,25.2540,-80.4440,1.5,31.12,11111222 
ENP,ioos.station.NOAA.NDBC:HCEF1:1,2019-10-12T19:00:00Z,25.2540,-80.4440,1.5,31.37,11111222 
ENP,ioos.station.NOAA.NDBC:HCEF1:1,2019-10-12T20:00:00Z,25.2540,-80.4440,1.5,30.79,11111222 
ENP,ioos.station.NOAA.NDBC:HCEF1:1,2019-10-12T21:00:00Z,25.2540,-80.4440,1.5,30.67,11111222 
ENP,ioos.station.NOAA.NDBC:HCEF1:1,2019-10-12T22:00:00Z,25.2540,-80.4440,1.5,30.56,11111222 
ENP,ioos.station.NOAA.NDBC:HCEF1:1,2019-10-12T23:00:00Z,25.2540,-80.4440,1.5,29.71,11111222 
ENP,ioos.station.NOAA.NDBC:HCEF1:1,2019-10-13T00:00:00Z,25.2540,-80.4440,1.5,29.18,11111222 
ENP,ioos.station.NOAA.NDBC:HCEF1:1,2019-10-13T01:00:00Z,25.2540,-80.4440,1.5,29.01,11111222 
ENP,ioos.station.NOAA.NDBC:HCEF1:1,2019-10-13T02:00:00Z,25.2540,-80.4440,1.5,29.03,11111222 
ENP,ioos.station.NOAA.NDBC:HCEF1:1,2019-10-13T04:00:00Z,25.2540,-80.4440,1.5,29.17,11111222 
ENP,ioos.station.NOAA.NDBC:HCEF1:1,2019-10-13T05:00:00Z,25.2540,-80.4440,1.5,29.39,11111222 
ENP,ioos.station.NOAA.NDBC:HCEF1:1,2019-10-13T06:00:00Z,25.2540,-80.4440,1.5,29.59,11111222 
ENP,ioos.station.NOAA.NDBC:HCEF1:1,2019-10-13T07:00:00Z,25.2540,-80.4440,1.5,29.85,11111222 
ENP,ioos.station.NOAA.NDBC:HCEF1:1,2019-10-13T08:00:00Z,25.2540,-80.4440,1.5,29.98,11111222 
ENP,ioos.station.NOAA.NDBC:HCEF1:1,2019-10-13T09:00:00Z,25.2540,-80.4440,1.5,30.01,11111222 
ENP,ioos.station.NOAA.NDBC:HCEF1:1,2019-10-13T10:00:00Z,25.2540,-80.4440,1.5,30.08,11111222 
ENP,ioos.station.NOAA.NDBC:HCEF1:1,2019-10-13T11:00:00Z,25.2540,-80.4440,1.5,30.11,11111222 
ENP,ioos.station.NOAA.NDBC:HCEF1:1,2019-10-13T12:00:00Z,25.2540,-80.4440,1.5,30.13,11111222 
ENP,ioos.station.NOAA.NDBC:HCEF1:1,2019-10-13T13:00:00Z,25.2540,-80.4440,1.5,30.12,11111222 
ENP,ioos.station.NOAA.NDBC:HCEF1:1,2019-10-13T14:00:00Z,25.2540,-80.4440,1.5,29.89,11111222 
ENP,ioos.station.NOAA.NDBC:HCEF1:1,2019-10-13T15:00:00Z,25.2540,-80.4440,1.5,29.77,11111222 